Location: Bathurst
(33.4193°S, 149.5775°E)
Time: 14:49:25
(UTC+11:00)

Envisat - Pass Details

Date: 03 February 2021
Orbit: 764 x 766 km, 98.1° (Epoch: 07 March)

Event Time Altitude Azimuth Distance (km) Brightness Sun altitude
Rises 05:20:37 0° 35° (NE) 3,219 6.3 -13.1°
Reaches altitude 10° 05:23:03 10° 44° (NE) 2,301 5.6 -12.7°
Maximum altitude 05:27:39 36° 109° (ESE) 1,214 4.8 -11.8°
Drops below altitude 10° 05:32:18 10° 173° (S) 2,328 6.0 -11.0°
Sets 05:34:47 0° 181° (S) 3,262 6.6 -10.5°
